Location: Praha
(50.0830°N, 14.4670°E)
Time: 22:34:18
(UTC+02:00)

ISS - Pass Details

Date: 12 September 2019
Orbit: 411 x 421 km, 51.6° (Epoch: 19 September)

Event Time Altitude Azimuth Distance (km) Brightness Sun altitude
Exits shadow 03:10:41 11° 84° (E) 1,450 -0.5 -28.6°
Drops below altitude 10° 03:10:47 10° 84° (E) 1,491 -0.5 -28.6°
Sets 03:12:54 0° 88° (E) 2,355 0.6 -28.4°
